Weather in Jabalpur

India     23°08′45″N   79°57′13″E
temp.,
°C
wind,
m/s
gust,
m/s
humid.,
%
clouds,
%
prec.,
mm/h
press.,
hPa
HPBL,
m
11 april, sun
sun1123:30+29s112856 0.0 101026
02:30+28nne223038 0.0 100919
05:30+27se113281 0.0 101011
08:30+31se33265 0.2 1013415
11:30+37ssw34180 0.4 10113178
14:30+39wnw55135 0.0 10074409
17:30+26sse12164879 0.3 1009405
20:30+30ese352939 0.1 1011194
12 april, mon
mon1223:30+28ese363931 0.1 1011203
02:30+26se37426 0.0 1010147
05:30+25sse37465 0.0 1011141
08:30+31s57320 0.0 1013646
11:30+37sw42190 0.0 10112633
14:30+38sw231245 0.0 10074354
17:30+35n451592 0.0 10071041
20:30+31se122475 0.0 101044
13 april, tue
tue1323:30+29se35275 0.0 101092
02:30+27s373157 0.0 1010133
05:30+26s22343 0.0 101012
08:30+33ssw45240 0.0 1012441
11:30+39sw33115 0.0 10105110
14:30+40w23857 0.0 10065278
17:30+38w649100 0.0 10053620
20:30+33sse351412 0.0 100787
14 april, wed
wed1423:30+31sse221787 0.0 100828
02:30+30sse221997 0.0 100712
05:30+28s342231 0.0 100840
08:30+34s44151 0.0 1010463
11:30+40s3375 0.0 10085466
14:30+42w12639 0.0 10055544
17:30+40nw33651 0.0 10035302
20:30+34s331172 0.0 100648
15 april, thu
thu1523:30+33wnw111211 0.0 100611
02:30+29ssw3417100 0.0 100644
05:30+27s352383 0.0 100764
08:30+33w22124 0.0 1010470
11:30+39n4585 0.0 10082370
14:30+40nnw4365 0.0 10045009
17:30+39wnw336100 0.0 10034623
20:30+33nw361062 0.0 1005109